Zurück zum Katalog

NOAA 16 DEB

AktivSSO
NORAD 42376·DEBRIS·🇺🇸 United States

Gestartet Sep 21, 2000 von Vandenberg Space Force Base

Loading…

Nächste Überflüge (nächste 24 Stunden)

TLE

AlterndSource: Space-Track

Epoche: Sep 10, 2026, 01:41 UTC

1 42376U 00055RU  26253.07060169  .00005144  00000-0  22853-2 0  9995
2 42376  98.7525 200.2158 0077026 258.0351 101.2184 14.21819936540532

Verfolge NOAA 16 DEB in Echtzeit mit AllMySat

Download on the App Store